Zurück zum Katalog

TITAN 3C TRANSTAGE DEB

AktivLEO
NORAD 3978·DEBRIS·🇺🇸 United States

Gestartet Oct 15, 1965 von Cape Canaveral Space Force Station

Loading…

Nächste Überflüge (nächste 24 Stunden)

TLE

AktuellSource: Space-Track

Epoche: Sep 14, 2026, 14:35 UTC

1 03978U 65082SE  26257.60831816  .00000594  00000-0  90411-4 0  9990
2 03978  32.5634  98.2224 0033463  53.1506 307.2210 14.70556633460081

Verfolge TITAN 3C TRANSTAGE DEB in Echtzeit mit AllMySat

Download on the App Store